WZZ61 EDDS-LHBP

Flight info

Callsign WZZ61
Flight time 1h 9m
Altitude 35000
Route ABTAL4B ABTAL L173 RIXED Y161 RIDAR Z98 MIQ L605 BIBAG Q104 AKIMA DCT MAREG DCT ANEXA
Aircraft A321/M-SDE1E2E3FGIJ1J4RWXY/LB1

Departure

Time 2026-05-05 17:24
Airport Stuttgart Airport (EDDS)

Arrival

Time 2026-05-05 18:33
Airport Budapest Liszt Ferenc International Airport (LHBP)
Time Latitude Longitude Altitude Speed Heading
2026-05-05 16:50 48.68938 9.19647 1314 ft 0 kts 343°
2026-05-05 17:08 48.68937 9.19648 1314 ft 2 kts 343°
2026-05-05 17:08 48.68913 9.19660 1312 ft 4 kts 346°
2026-05-05 17:08 48.68891 9.19661 1311 ft 3 kts 16°
2026-05-05 17:09 48.68867 9.19645 1310 ft 4 kts 41°
2026-05-05 17:09 48.68851 9.19614 1310 ft 4 kts 69°
2026-05-05 17:09 48.68847 9.19594 1310 ft 1 kts 73°
2026-05-05 17:10 48.68843 9.19577 1310 ft 2 kts 73°
2026-05-05 17:10 48.68839 9.19553 1310 ft 2 kts 73°
2026-05-05 17:10 48.68834 9.19529 1311 ft 2 kts 73°
2026-05-05 17:10 48.68833 9.19525 1311 ft 0 kts 74°
2026-05-05 17:12 48.68834 9.19525 1311 ft 0 kts 74°
2026-05-05 17:13 48.68838 9.19549 1310 ft 5 kts 74°
2026-05-05 17:13 48.68851 9.19615 1309 ft 8 kts 73°
2026-05-05 17:13 48.68871 9.19720 1307 ft 13 kts 74°
2026-05-05 17:13 48.68891 9.19843 1304 ft 9 kts 90°
2026-05-05 17:14 48.68824 9.19908 1298 ft 14 kts 142°
2026-05-05 17:14 48.68830 9.19993 1295 ft 7 kts 50°
2026-05-05 17:14 48.68847 9.20079 1294 ft 11 kts 74°
2026-05-05 17:14 48.68871 9.20207 1291 ft 15 kts 74°
2026-05-05 17:15 48.68903 9.20378 1286 ft 19 kts 74°
2026-05-05 17:15 48.68945 9.20593 1281 ft 23 kts 73°
2026-05-05 17:15 48.68993 9.20846 1276 ft 27 kts 74°
2026-05-05 17:15 48.69046 9.21132 1271 ft 30 kts 72°
2026-05-05 17:16 48.69099 9.21406 1264 ft 28 kts 74°
2026-05-05 17:16 48.69156 9.21702 1260 ft 27 kts 73°
2026-05-05 17:16 48.69208 9.21981 1259 ft 28 kts 74°
2026-05-05 17:16 48.69262 9.22264 1246 ft 29 kts 74°
2026-05-05 17:17 48.69314 9.22542 1242 ft 28 kts 73°
2026-05-05 17:17 48.69367 9.22819 1229 ft 29 kts 74°
2026-05-05 17:17 48.69422 9.23113 1225 ft 29 kts 73°
2026-05-05 17:17 48.69471 9.23372 1231 ft 22 kts 75°
2026-05-05 17:18 48.69508 9.23562 1247 ft 15 kts 73°
2026-05-05 17:18 48.69530 9.23678 1261 ft 8 kts 73°
2026-05-05 17:18 48.69541 9.23732 1266 ft 4 kts 74°
2026-05-05 17:18 48.69548 9.23770 1267 ft 4 kts 74°
2026-05-05 17:19 48.69558 9.23824 1269 ft 7 kts 74°
2026-05-05 17:19 48.69577 9.23922 1273 ft 13 kts 74°
2026-05-05 17:19 48.69603 9.24063 1271 ft 15 kts 74°
2026-05-05 17:19 48.69591 9.24212 1270 ft 12 kts 119°
2026-05-05 17:20 48.69546 9.24293 1255 ft 14 kts 153°
2026-05-05 17:20 48.69540 9.24297 1253 ft 0 kts 157°
2026-05-05 17:20 48.69537 9.24299 1254 ft 4 kts 157°
2026-05-05 17:20 48.69486 9.24324 1242 ft 0 kts 166°
2026-05-05 17:22 48.69442 9.24333 1200 ft 27 kts 181°
2026-05-05 17:23 48.69384 9.24293 1191 ft 2 kts 261°
2026-05-05 17:23 48.69383 9.24289 1192 ft 0 kts 256°
2026-05-05 17:23 48.69383 9.24288 1192 ft 0 kts 256°
2026-05-05 17:23 48.69351 9.24111 1195 ft 52 kts 254°
2026-05-05 17:24 48.69181 9.23212 1213 ft 123 kts 254°
2026-05-05 17:24 48.68899 9.21699 1275 ft 174 kts 255°
2026-05-05 17:24 48.68579 9.19907 1923 ft 177 kts 255°
2026-05-05 17:24 48.68256 9.18093 2698 ft 181 kts 255°
2026-05-05 17:25 48.67882 9.16163 3020 ft 201 kts 252°
2026-05-05 17:25 48.67596 9.14741 3168 ft 217 kts 252°
2026-05-05 17:25 48.66981 9.11720 3975 ft 230 kts 251°
2026-05-05 17:25 48.66143 9.09704 4892 ft 231 kts 219°
2026-05-05 17:26 48.64635 9.08906 5760 ft 239 kts 182°
2026-05-05 17:26 48.63034 9.09690 6583 ft 252 kts 153°
2026-05-05 17:26 48.61713 9.11484 7366 ft 265 kts 126°
2026-05-05 17:26 48.61178 9.14247 8021 ft 286 kts 93°
2026-05-05 17:27 48.61400 9.17333 8493 ft 304 kts 84°
2026-05-05 17:27 48.61640 9.20558 9240 ft 310 kts 87°
2026-05-05 17:27 48.61818 9.23822 9983 ft 315 kts 86°
2026-05-05 17:27 48.62246 9.27097 10711 ft 320 kts 73°
2026-05-05 17:28 48.63066 9.30294 11186 ft 337 kts 69°
2026-05-05 17:28 48.64001 9.33668 11401 ft 358 kts 68°
2026-05-05 17:28 48.64996 9.37171 11985 ft 367 kts 68°
2026-05-05 17:28 48.66015 9.40734 12700 ft 371 kts 68°
2026-05-05 17:29 48.67038 9.44324 13446 ft 374 kts 68°
2026-05-05 17:29 48.68067 9.47959 14126 ft 377 kts 68°
2026-05-05 17:29 48.69099 9.51628 14822 ft 379 kts 68°
2026-05-05 17:29 48.70126 9.55294 15530 ft 380 kts 68°
2026-05-05 17:30 48.71161 9.59000 16249 ft 382 kts 69°
2026-05-05 17:30 48.72202 9.62723 16934 ft 385 kts 68°
2026-05-05 17:30 48.73249 9.66472 17601 ft 388 kts 69°
2026-05-05 17:30 48.74301 9.70250 18260 ft 391 kts 69°
2026-05-05 17:31 48.75356 9.74047 18831 ft 394 kts 69°
2026-05-05 17:31 48.76420 9.77881 19403 ft 396 kts 69°
2026-05-05 17:31 48.77494 9.81748 19999 ft 399 kts 69°
2026-05-05 17:31 48.78572 9.85637 20578 ft 402 kts 69°
2026-05-05 17:32 48.79657 9.89563 21161 ft 405 kts 69°
2026-05-05 17:32 48.80747 9.93514 21743 ft 408 kts 69°
2026-05-05 17:32 48.81847 9.97506 22319 ft 411 kts 69°
2026-05-05 17:32 48.82951 10.01520 22907 ft 414 kts 69°
2026-05-05 17:33 48.84046 10.05581 23451 ft 416 kts 72°
2026-05-05 17:33 48.84795 10.09821 23897 ft 416 kts 83°
2026-05-05 17:33 48.85049 10.14183 24333 ft 415 kts 93°
2026-05-05 17:33 48.84839 10.18540 24776 ft 414 kts 100°
2026-05-05 17:34 48.84488 10.22886 25247 ft 416 kts 100°
2026-05-05 17:34 48.84132 10.27264 25694 ft 418 kts 100°
2026-05-05 17:34 48.83776 10.31654 26138 ft 420 kts 100°
2026-05-05 17:34 48.83354 10.35965 26551 ft 420 kts 106°
2026-05-05 17:35 48.82501 10.40122 26992 ft 417 kts 116°
2026-05-05 17:35 48.81142 10.44098 27431 ft 415 kts 126°
2026-05-05 17:35 48.79444 10.47478 27817 ft 413 kts 135°
2026-05-05 17:35 48.77433 10.50685 28235 ft 415 kts 136°
2026-05-05 17:36 48.75466 10.53807 28624 ft 417 kts 137°
2026-05-05 17:36 48.74063 10.56042 28920 ft 418 kts 136°
2026-05-05 17:37 48.72354 10.58772 29281 ft 420 kts 136°
2026-05-05 17:37 48.70989 10.60956 29522 ft 421 kts 136°
2026-05-05 17:37 48.68315 10.65228 30023 ft 423 kts 136°
2026-05-05 17:37 48.66279 10.68465 30322 ft 426 kts 137°
2026-05-05 17:38 48.64897 10.70656 30514 ft 428 kts 137°
2026-05-05 17:38 48.62846 10.73933 30794 ft 431 kts 135°
2026-05-05 17:38 48.61050 10.77602 31064 ft 439 kts 124°
2026-05-05 17:38 48.59694 10.81783 31324 ft 448 kts 114°
2026-05-05 17:39 48.58853 10.86350 31612 ft 456 kts 104°
2026-05-05 17:39 48.58559 10.91144 31961 ft 462 kts 96°
2026-05-05 17:39 48.58432 10.95996 32281 ft 463 kts 97°
2026-05-05 17:39 48.58299 11.00788 32618 ft 464 kts 97°
2026-05-05 17:40 48.58155 11.05739 32982 ft 465 kts 97°
2026-05-05 17:40 48.58014 11.10464 33329 ft 466 kts 97°
2026-05-05 17:40 48.57873 11.15351 33690 ft 467 kts 97°
2026-05-05 17:40 48.57762 11.20018 33993 ft 468 kts 96°
2026-05-05 17:41 48.57703 11.23103 34204 ft 468 kts 96°
2026-05-05 17:41 48.57622 11.28206 34562 ft 468 kts 96°
2026-05-05 17:41 48.57549 11.33113 34732 ft 468 kts 96°
2026-05-05 17:42 48.57383 11.42947 34816 ft 469 kts 96°
2026-05-05 17:42 48.56997 11.52731 34802 ft 466 kts 100°
2026-05-05 17:43 48.56260 11.62378 34809 ft 465 kts 102°
2026-05-05 17:43 48.55425 11.72113 34802 ft 465 kts 102°
2026-05-05 17:44 48.54599 11.81792 34815 ft 466 kts 101°
2026-05-05 17:44 48.53790 11.91510 34810 ft 467 kts 101°
2026-05-05 17:45 48.52984 12.01243 34814 ft 467 kts 101°
2026-05-05 17:45 48.52168 12.10964 34811 ft 467 kts 101°
2026-05-05 17:46 48.51336 12.20682 34786 ft 467 kts 101°
2026-05-05 17:46 48.50610 12.29068 34804 ft 469 kts 101°
2026-05-05 17:47 48.49821 12.38064 34799 ft 469 kts 101°
2026-05-05 17:47 48.48970 12.47821 34799 ft 469 kts 101°
2026-05-05 17:48 48.48113 12.57563 34792 ft 469 kts 101°
2026-05-05 17:48 48.47238 12.67286 34791 ft 469 kts 101°
2026-05-05 17:49 48.46353 12.77014 34780 ft 468 kts 101°
2026-05-05 17:49 48.45463 12.86746 34780 ft 469 kts 101°
2026-05-05 17:50 48.44570 12.96475 34782 ft 469 kts 102°
2026-05-05 17:50 48.43663 13.06191 34765 ft 469 kts 101°
2026-05-05 17:51 48.42785 13.15540 34771 ft 469 kts 101°
2026-05-05 17:51 48.41858 13.25267 34765 ft 470 kts 101°
2026-05-05 17:52 48.40978 13.35017 34768 ft 471 kts 99°
2026-05-05 17:52 48.40504 13.44856 34760 ft 472 kts 95°
2026-05-05 17:53 48.40199 13.54708 34761 ft 471 kts 95°
2026-05-05 17:53 48.39866 13.63238 34758 ft 470 kts 96°
2026-05-05 17:54 48.39401 13.72801 34748 ft 470 kts 97°
2026-05-05 17:54 48.38890 13.82605 34750 ft 470 kts 97°
2026-05-05 17:55 48.38390 13.92354 34732 ft 470 kts 96°
2026-05-05 17:55 48.37900 14.02123 34739 ft 470 kts 96°
2026-05-05 17:56 48.37401 14.11921 34726 ft 470 kts 96°
2026-05-05 17:56 48.36893 14.21715 34729 ft 470 kts 96°
2026-05-05 17:57 48.36375 14.31504 34728 ft 470 kts 96°
2026-05-05 17:57 48.35846 14.41268 34722 ft 467 kts 96°
2026-05-05 17:58 48.35309 14.51001 34725 ft 467 kts 96°
2026-05-05 17:58 48.34767 14.60725 34715 ft 467 kts 96°
2026-05-05 17:59 48.34223 14.70390 34726 ft 467 kts 96°
2026-05-05 17:59 48.33669 14.80111 34713 ft 466 kts 97°
2026-05-05 18:00 48.33099 14.89813 34715 ft 466 kts 97°
2026-05-05 18:00 48.32520 14.99495 34721 ft 464 kts 97°
2026-05-05 18:01 48.31948 15.09150 34716 ft 463 kts 97°
2026-05-05 18:01 48.31369 15.18780 34717 ft 463 kts 97°
2026-05-05 18:02 48.30772 15.28397 34714 ft 462 kts 97°
2026-05-05 18:02 48.30164 15.38011 34716 ft 462 kts 97°
2026-05-05 18:03 48.29559 15.47617 34716 ft 462 kts 97°
2026-05-05 18:03 48.28942 15.57233 34713 ft 462 kts 97°
2026-05-05 18:04 48.28316 15.66837 34719 ft 462 kts 97°
2026-05-05 18:04 48.27684 15.76423 34721 ft 461 kts 97°
2026-05-05 18:05 48.27043 15.86005 34724 ft 461 kts 97°
2026-05-05 18:05 48.26398 15.95575 34721 ft 461 kts 97°
2026-05-05 18:06 48.25748 16.05152 34717 ft 461 kts 97°
2026-05-05 18:06 48.25085 16.14748 34742 ft 464 kts 97°
2026-05-05 18:07 48.24413 16.24363 34757 ft 463 kts 97°
2026-05-05 18:07 48.23723 16.33986 34770 ft 463 kts 97°
2026-05-05 18:08 48.23027 16.43599 34777 ft 464 kts 98°
2026-05-05 18:08 48.22328 16.53217 34786 ft 466 kts 97°
2026-05-05 18:09 48.21617 16.62851 34781 ft 465 kts 98°
2026-05-05 18:09 48.20899 16.72512 34782 ft 465 kts 98°
2026-05-05 18:10 48.20178 16.82155 34789 ft 466 kts 98°
2026-05-05 18:10 48.19446 16.91784 34825 ft 466 kts 98°
2026-05-05 18:11 48.18145 17.01225 34837 ft 462 kts 110°
2026-05-05 18:11 48.16166 17.10387 34840 ft 461 kts 110°
2026-05-05 18:12 48.14196 17.19539 34837 ft 462 kts 110°
2026-05-05 18:12 48.12223 17.28681 34837 ft 461 kts 110°
2026-05-05 18:13 48.10240 17.37844 34838 ft 463 kts 109°
2026-05-05 18:13 48.08241 17.47009 34837 ft 465 kts 110°
2026-05-05 18:14 48.06228 17.56163 34749 ft 462 kts 109°
2026-05-05 18:14 48.05218 17.60745 33842 ft 466 kts 110°
2026-05-05 18:14 48.04203 17.65345 32857 ft 464 kts 109°
2026-05-05 18:14 48.03206 17.69866 32370 ft 453 kts 109°
2026-05-05 18:15 48.02223 17.74313 31865 ft 449 kts 110°
2026-05-05 18:15 48.01244 17.78729 31373 ft 446 kts 110°
2026-05-05 18:15 48.00270 17.83111 30871 ft 443 kts 110°
2026-05-05 18:15 47.99304 17.87456 30380 ft 439 kts 110°
2026-05-05 18:16 47.98345 17.91765 29887 ft 436 kts 110°
2026-05-05 18:16 47.97390 17.96041 29384 ft 432 kts 110°
2026-05-05 18:16 47.96442 18.00273 28922 ft 427 kts 110°
2026-05-05 18:16 47.95505 18.04449 28458 ft 422 kts 110°
2026-05-05 18:17 47.94575 18.08582 28016 ft 418 kts 110°
2026-05-05 18:17 47.93653 18.12668 27594 ft 414 kts 110°
2026-05-05 18:17 47.92739 18.16713 27173 ft 410 kts 110°
2026-05-05 18:17 47.91842 18.20675 26761 ft 407 kts 110°
2026-05-05 18:18 47.90929 18.24711 26343 ft 404 kts 110°
2026-05-05 18:18 47.90045 18.28617 25929 ft 402 kts 110°
2026-05-05 18:18 47.89138 18.32598 25507 ft 400 kts 110°
2026-05-05 18:18 47.88242 18.36515 25081 ft 398 kts 110°
2026-05-05 18:19 47.87649 18.39095 24800 ft 397 kts 111°
2026-05-05 18:19 47.86470 18.42765 24386 ft 391 kts 126°
2026-05-05 18:19 47.84741 18.45834 23964 ft 384 kts 141°
2026-05-05 18:19 47.82600 18.48130 23531 ft 378 kts 154°
2026-05-05 18:20 47.79371 18.49847 22908 ft 369 kts 172°
2026-05-05 18:20 47.77665 18.50218 22631 ft 365 kts 175°
2026-05-05 18:20 47.74357 18.50895 22063 ft 360 kts 174°
2026-05-05 18:20 47.72692 18.51239 21774 ft 357 kts 174°
2026-05-05 18:21 47.70237 18.51748 21352 ft 354 kts 174°
2026-05-05 18:21 47.67807 18.52251 20936 ft 351 kts 174°
2026-05-05 18:21 47.65399 18.52747 20519 ft 348 kts 174°
2026-05-05 18:21 47.63014 18.53253 20114 ft 345 kts 171°
2026-05-05 18:22 47.60761 18.54339 19676 ft 339 kts 155°
2026-05-05 18:22 47.58865 18.56395 19107 ft 340 kts 135°
2026-05-05 18:22 47.57550 18.59285 18512 ft 341 kts 115°
2026-05-05 18:22 47.56947 18.62669 17876 ft 341 kts 101°
2026-05-05 18:23 47.56601 18.66090 17182 ft 339 kts 101°
2026-05-05 18:23 47.56249 18.69514 16568 ft 335 kts 101°
2026-05-05 18:23 47.55898 18.72874 15813 ft 328 kts 102°
2026-05-05 18:23 47.55542 18.76223 14994 ft 324 kts 102°
2026-05-05 18:24 47.55193 18.79483 14220 ft 319 kts 102°
2026-05-05 18:24 47.54851 18.82666 13752 ft 304 kts 103°
2026-05-05 18:24 47.54598 18.85703 13225 ft 295 kts 92°
2026-05-05 18:24 47.54973 18.88639 12572 ft 296 kts 69°
2026-05-05 18:25 47.56113 18.91195 11821 ft 300 kts 45°
2026-05-05 18:25 47.57134 18.92581 11288 ft 301 kts 43°
2026-05-05 18:25 47.59109 18.95510 10277 ft 299 kts 52°
2026-05-05 18:25 47.60513 18.97698 9975 ft 285 kts 45°
2026-05-05 18:26 47.62087 18.99275 9844 ft 277 kts 22°
2026-05-05 18:26 47.63886 19.00259 9199 ft 274 kts 16°
2026-05-05 18:26 47.65665 19.01070 8851 ft 260 kts 18°
2026-05-05 18:26 47.67196 19.02374 8268 ft 254 kts 47°
2026-05-05 18:27 47.68126 19.04593 7346 ft 257 kts 78°
2026-05-05 18:27 47.68199 19.07202 6437 ft 253 kts 109°
2026-05-05 18:27 47.67399 19.09419 5639 ft 240 kts 139°
2026-05-05 18:27 47.66012 19.10631 4849 ft 230 kts 170°
2026-05-05 18:28 47.63055 19.10508 4263 ft 196 kts 188°
2026-05-05 18:28 47.61719 19.10328 4083 ft 191 kts 188°
2026-05-05 18:28 47.60397 19.10169 3992 ft 190 kts 188°
2026-05-05 18:29 47.59074 19.10007 4011 ft 191 kts 188°
2026-05-05 18:29 47.57764 19.09840 3839 ft 187 kts 188°
2026-05-05 18:29 47.56469 19.09683 3548 ft 186 kts 188°
2026-05-05 18:29 47.55170 19.09530 3509 ft 188 kts 188°
2026-05-05 18:30 47.53868 19.09448 3351 ft 188 kts 180°
2026-05-05 18:30 47.52577 19.09976 2947 ft 201 kts 158°
2026-05-05 18:30 47.51455 19.11351 2469 ft 217 kts 139°
2026-05-05 18:30 47.50441 19.13012 2122 ft 215 kts 137°
2026-05-05 18:31 47.49469 19.14610 1831 ft 203 kts 136°
2026-05-05 18:31 47.48573 19.16074 1569 ft 186 kts 137°
2026-05-05 18:31 47.47774 19.17375 1341 ft 159 kts 136°
2026-05-05 18:31 47.47051 19.18545 1117 ft 150 kts 136°
2026-05-05 18:32 47.46340 19.19688 915 ft 149 kts 135°
2026-05-05 18:32 47.45649 19.20835 755 ft 150 kts 131°
2026-05-05 18:32 47.44955 19.21947 578 ft 148 kts 134°
2026-05-05 18:32 47.44266 19.23035 462 ft 135 kts 125°
2026-05-05 18:33 47.43749 19.23894 455 ft 88 kts 132°
2026-05-05 18:33 47.43434 19.24401 452 ft 55 kts 132°
2026-05-05 18:33 47.43198 19.24782 456 ft 32 kts 132°
2026-05-05 18:33 47.43106 19.24960 458 ft 16 kts 103°
2026-05-05 18:34 47.43126 19.25092 457 ft 1 kts 47°
2026-05-05 18:34 47.43129 19.25096 457 ft 1 kts 45°
2026-05-05 18:34 47.43142 19.25115 457 ft 4 kts 45°
2026-05-05 18:34 47.43168 19.25152 457 ft 6 kts 45°
2026-05-05 18:35 47.43205 19.25202 457 ft 8 kts 41°
2026-05-05 18:35 47.43254 19.25267 457 ft 11 kts 42°
2026-05-05 18:35 47.43314 19.25347 457 ft 13 kts 42°
2026-05-05 18:35 47.43384 19.25441 457 ft 15 kts 42°
2026-05-05 18:36 47.43464 19.25548 457 ft 17 kts 42°
2026-05-05 18:36 47.43553 19.25669 457 ft 18 kts 42°
2026-05-05 18:36 47.43653 19.25802 457 ft 20 kts 42°
2026-05-05 18:36 47.43731 19.25917 457 ft 14 kts 61°
2026-05-05 18:37 47.43694 19.26040 457 ft 14 kts 129°
2026-05-05 18:37 47.43676 19.26188 458 ft 16 kts 88°
2026-05-05 18:37 47.43669 19.26335 458 ft 14 kts 114°
2026-05-05 18:37 47.43616 19.26427 458 ft 7 kts 143°
2026-05-05 18:38 47.43574 19.26406 457 ft 3 kts 221°
2026-05-05 18:38 47.43566 19.26394 456 ft 1 kts 222°
2026-05-05 18:38 47.43564 19.26392 456 ft 0 kts 222°